GW1859 Weather Reports


time (UTC)temp
C
wind
direction
speed
KPH
gust
KPH
rain 1hr
cm
rain 24hr
cm
rain mn
cm
humidity
%
barometer
mb
20260509000114 25 100 1.6 3.2 0.00 0.00 0.00 38 1009.8
20260508235612 25 124 0.0 0.0 0.00 0.00 0.00 40 1010.0
20260508235108 25 87 0.0 1.6 0.00 0.00 0.00 39 1009.9
20260508234606 26 350 1.6 9.7 0.00 0.00 0.00 38 1010.0
20260508234102 26 111 1.6 1.6 0.00 0.00 0.00 39 1009.8
20260508233601 26 312 4.8 8.0 0.00 0.00 0.00 37 1009.8
20260508233059 25 329 4.8 11.3 0.00 0.00 0.00 37 1009.9
20260508232555 26 62 1.6 4.8 0.00 0.00 0.00 37 1009.7
20260508232052 26 69 1.6 3.2 0.00 0.00 0.00 37 1009.3
20260508231550 26 137 0.0 0.0 0.00 0.00 0.00 37 1009.3
20260508231047 26 140 1.6 3.2 0.00 0.00 0.00 37 1009.5
20260508230543 26 125 3.2 3.2 0.00 0.00 0.00 36 1009.3
20260508230040 26 106 1.6 3.2 0.00 0.00 0.00 37 1009.3
20260508225537 26 316 1.6 4.8 0.00 0.00 0.00 37 1009.6
20260508225034 26 43 4.8 9.7 0.00 0.00 0.00 36 1009.3
20260508224532 27 326 11.3 16.1 0.00 0.00 0.00 37 1009.2
20260508224029 26 104 3.2 3.2 0.00 0.00 0.00 39 1009.1
20260508223527 27 102 3.2 4.8 0.00 0.00 0.00 39 1009.2
20260508223024 26 115 0.0 0.0 0.00 0.00 0.00 41 1009.3
20260508222521 27 347 1.6 3.2 0.00 0.00 0.00 40 1009.0
20260508222018 27 105 3.2 3.2 0.00 0.00 0.00 42 1009.2
20260508221514 26 96 3.2 8.0 0.00 0.00 0.00 42 1008.9
20260508221010 27 75 4.8 9.7 0.00 0.00 0.00 40 1009.0
20260508220507 28 290 3.2 3.2 0.00 0.00 0.00 38 1008.7
20260508220003 27 85 3.2 3.2 0.00 0.00 0.00 37 1008.9
20260508215500 27 26 8.0 11.3 0.00 0.00 0.00 37 1008.8
20260508214956 27 125 0.0 0.0 0.00 0.00 0.00 38 1009.1
20260508214454 27 68 6.4 8.0 0.00 0.00 0.00 38 1008.8
20260508213950 28 7 6.4 9.7 0.00 0.00 0.00 36 1008.7
20260508213448 28 19 4.8 8.0 0.00 0.00 0.00 37 1008.7
20260508212943 27 128 0.0 1.6 0.00 0.00 0.00 39 1008.7
20260508212440 27 331 4.8 4.8 0.00 0.00 0.00 38 1009.0
20260508211936 27 124 3.2 3.2 0.00 0.00 0.00 38 1009.2
20260508211431 27 125 0.0 1.6 0.00 0.00 0.00 41 1009.1
20260508210929 26 103 3.2 3.2 0.00 0.00 0.00 41 1009.1
20260508210426 27 115 3.2 3.2 0.00 0.00 0.00 39 1009.2
20260508205922 25 17 3.2 4.8 0.00 0.00 0.00 41 1009.2
20260508205419 25 122 1.6 4.8 0.00 0.00 0.00 41 1008.8
20260508204915 25 240 1.6 3.2 0.00 0.00 0.00 42 1009.3
20260508204413 25 119 1.6 1.6 0.00 0.00 0.00 45 1009.2
20260508203908 25 48 4.8 8.0 0.00 0.00 0.00 45 1009.5
20260508203404 25 121 0.0 1.6 0.00 0.00 0.00 47 1009.3
20260508202900 25 19 4.8 8.0 0.00 0.00 0.00 43 1009.6
20260508202358 26 298 4.8 4.8 0.00 0.00 0.00 43 1009.7
20260508201855 27 300 4.8 4.8 0.00 0.00 0.00 41 1009.7
20260508201351 26 107 1.6 3.2 0.00 0.00 0.00 45 1009.7
20260508200848 26 144 0.0 0.0 0.00 0.00 0.00 45 1009.6
20260508200345 25 98 0.0 0.0 0.00 0.00 0.00 46 1009.5
20260508195840 25 261 3.2 3.2 0.00 0.00 0.00 49 1009.7
20260508195337 23 277 4.8 4.8 0.00 0.00 0.00 49 1010.0
20260508194833 22 79 1.6 3.2 0.00 0.00 0.00 49 1009.9
20260508194331 22 126 0.0 0.0 0.00 0.00 0.00 52 1009.8
20260508193828 22 84 1.6 3.2 0.00 0.00 0.00 52 1010.1
20260508193324 22 131 0.0 0.0 0.00 0.00 0.00 54 1010.3
20260508192820 22 162 3.2 3.2 0.00 0.00 0.00 53 1010.2
20260508192318 22 203 3.2 3.2 0.00 0.00 0.00 52 1010.2
20260508191814 22 241 1.6 3.2 0.00 0.00 0.00 51 1010.4
20260508191312 22 239 4.8 4.8 0.00 0.00 0.00 52 1010.6
20260508190804 22 155 1.6 1.6 0.00 0.00 0.00 54 1010.2
20260508190259 22 145 3.2 3.2 0.00 0.00 0.00 54 1010.3
20260508185756 22 126 0.0 0.0 0.00 0.00 0.00 55 1010.0
20260508185254 22 348 3.2 3.2 0.00 0.00 0.00 53 1009.7
20260508184750 21 286 3.2 3.2 0.00 0.00 0.00 54 1009.6
20260508184248 21 31 1.6 3.2 0.00 0.00 0.00 55 1009.7
20260508183745 21 87 0.0 1.6 0.00 0.00 0.00 56 1009.8
20260508183241 21 330 3.2 4.8 0.00 0.00 0.00 55 1010.5
20260508182737 22 165 1.6 1.6 0.00 0.00 0.00 55 1010.4
20260508182234 21 127 1.6 3.2 0.00 0.00 0.00 55 1010.6
20260508181729 21 159 1.6 1.6 0.00 0.00 0.00 57 1010.8
20260508181227 21 165 1.6 3.2 0.00 0.00 0.00 57 1011.1
20260508180723 21 171 0.0 0.0 0.00 0.00 0.00 57 1010.6
20260508180220 21 237 4.8 8.0 0.00 0.00 0.00 56 1010.4
20260508175717 21 190 4.8 4.8 0.00 0.00 0.00 56 1010.5
20260508175214 21 251 4.8 4.8 0.00 0.00 0.00 55 1010.5
20260508174712 21 219 4.8 8.0 0.00 0.00 0.00 55 1010.4
20260508174208 21 278 4.8 4.8 0.00 0.00 0.00 55 1010.8
20260508173704 21 178 1.6 1.6 0.00 0.00 0.00 57 1011.1
20260508173200 21 294 1.6 3.2 0.00 0.00 0.00 56 1010.9
20260508172658 22 197 6.4 11.3 0.00 0.00 0.00 55 1011.1
20260508172155 22 166 1.6 3.2 0.00 0.00 0.00 54 1011.2
20260508171651 22 249 3.2 3.2 0.00 0.00 0.00 54 1011.2
20260508171147 22 322 3.2 4.8 0.00 0.00 0.00 53 1011.1
20260508170645 22 307 3.2 8.0 0.00 0.00 0.00 53 1010.8
20260508170142 22 179 3.2 8.0 0.00 0.00 0.00 53 1011.1
20260508165639 23 165 4.8 4.8 0.00 0.00 0.00 52 1010.9
20260508165136 22 234 4.8 8.0 0.00 0.00 0.00 53 1011.0
20260508164632 23 218 3.2 4.8 0.00 0.00 0.00 53 1011.0
20260508164129 22 191 4.8 4.8 0.00 0.00 0.00 53 1011.1
20260508163627 22 226 6.4 9.7 0.00 0.00 0.00 54 1011.2
20260508163123 22 167 4.8 8.0 0.00 0.00 0.00 53 1010.9
20260508162614 22 248 4.8 4.8 0.00 0.00 0.00 56 1011.0
20260508162112 21 177 6.4 8.0 0.00 0.00 0.00 55 1010.7
20260508161608 22 183 6.4 9.7 0.00 0.00 0.00 55 1010.6
20260508161106 21 198 3.2 4.8 0.00 0.00 0.00 57 1010.6
20260508160604 21 159 1.6 3.2 0.00 0.00 0.00 60 1011.0
20260508160101 20 178 1.6 3.2 0.00 0.00 0.00 60 1010.9
20260508155558 20 196 4.8 9.7 0.00 0.00 0.00 60 1011.4
20260508155055 20 161 3.2 3.2 0.00 0.00 0.00 60 1011.4
20260508154552 20 163 3.2 4.8 0.00 0.00 0.00 61 1011.4
20260508154049 20 234 6.4 9.7 0.00 0.00 0.00 61 1011.3
20260508153545 20 229 6.4 8.0 0.00 0.00 0.00 61 1011.3
20260508153042 20 186 4.8 4.8 0.00 0.00 0.00 62 1011.3
20260508152540 19 157 3.2 9.7 0.00 0.00 0.00 63 1011.4
20260508152034 19 211 3.2 4.8 0.00 0.00 0.00 63 1011.5
20260508151531 19 223 3.2 4.8 0.00 0.00 0.00 63 1011.5
20260508151028 18 188 4.8 8.0 0.00 0.00 0.00 64 1011.7
20260508150525 18 214 4.8 4.8 0.00 0.00 0.00 65 1011.8
20260508150021 18 131 1.6 3.2 0.00 0.00 0.00 65 1011.5
20260508145518 18 189 6.4 8.0 0.00 0.00 0.00 66 1011.5
20260508145014 18 133 1.6 1.6 0.00 0.00 0.00 66 1011.5
20260508144512 17 163 4.8 4.8 0.00 0.00 0.00 67 1011.5
20260508144009 17 177 4.8 4.8 0.00 0.00 0.00 67 1012.1
20260508143507 17 181 3.2 3.2 0.00 0.00 0.00 68 1012.4
20260508143003 17 216 1.6 4.8 0.00 0.00 0.00 67 1012.5
20260508142500 17 158 1.6 3.2 0.00 0.00 0.00 67 1012.6
20260508141956 17 170 0.0 0.0 0.00 0.00 0.00 68 1012.3
20260508141453 17 232 3.2 4.8 0.00 0.00 0.00 68 1012.2
20260508140951 17 222 3.2 4.8 0.00 0.00 0.00 69 1012.1
20260508140448 16 163 0.0 0.0 0.00 0.00 0.00 69 1012.6
20260508135943 16 165 4.8 4.8 0.00 0.00 0.00 70 1012.5
20260508135440 16 143 0.0 0.0 0.00 0.00 0.00 71 1012.4
20260508134937 16 198 0.0 1.6 0.00 0.00 0.00 71 1012.4
20260508134433 16 313 3.2 3.2 0.00 0.00 0.00 72 1012.5
20260508133930 15 178 1.6 1.6 0.00 0.00 0.00 72 1012.4
20260508133428 15 161 4.8 4.8 0.00 0.00 0.00 73 1012.4
20260508132924 15 149 0.0 0.0 0.00 0.00 0.00 75 1012.4
20260508132422 14 195 1.6 1.6 0.00 0.00 0.00 74 1012.3
20260508131919 14 314 0.0 0.0 0.00 0.00 0.00 75 1012.4
20260508131414 14 187 3.2 4.8 0.00 0.00 0.00 74 1012.1
20260508130911 13 220 3.2 4.8 0.00 0.00 0.00 75 1012.1
20260508130408 13 191 3.2 3.2 0.00 0.00 0.00 76 1012.0
20260508125904 13 189 3.2 3.2 0.00 0.00 0.00 76 1012.1
20260508125400 13 236 1.6 1.6 0.00 0.00 0.00 76 1012.0
20260508124858 12 147 1.6 1.6 0.00 0.00 0.00 77 1011.6
20260508124355 12 178 1.6 3.2 0.00 0.00 0.00 78 1011.6
20260508123853 12 169 1.6 3.2 0.00 0.00 0.00 78 1011.6
20260508123352 12 220 4.8 8.0 0.00 0.00 0.00 78 1011.6
20260508122847 12 208 3.2 3.2 0.00 0.00 0.00 78 1011.5
20260508122344 11 171 1.6 1.6 0.00 0.00 0.00 78 1011.5
20260508121842 11 146 0.0 0.0 0.00 0.00 0.00 78 1011.7
20260508121340 11 137 0.0 1.6 0.00 0.00 0.00 78 1011.6
20260508120837 11 170 4.8 4.8 0.00 0.00 0.00 78 1011.7
20260508120335 11 167 0.0 1.6 0.00 0.00 0.00 78 1011.6
20260508115832 11 181 1.6 1.6 0.00 0.00 0.00 78 1011.3
20260508115330 11 158 1.6 1.6 0.00 0.00 0.00 78 1011.5
20260508114826 11 124 0.0 0.0 0.00 0.00 0.00 78 1011.6
20260508114323 11 159 0.0 1.6 0.00 0.00 0.00 77 1011.5
20260508113820 11 152 0.0 0.0 0.00 0.00 0.00 77 1011.5
20260508113318 11 146 0.0 0.0 0.00 0.00 0.00 77 1011.8
20260508112814 11 195 1.6 3.2 0.00 0.00 0.00 77 1011.8
20260508112312 11 171 3.2 4.8 0.00 0.00 0.00 76 1011.7
20260508111808 11 178 3.2 3.2 0.00 0.00 0.00 76 1011.7
20260508111305 11 159 0.0 1.6 0.00 0.00 0.00 76 1011.8
20260508110802 11 174 0.0 1.6 0.00 0.00 0.00 75 1011.7
20260508110300 11 193 0.0 0.0 0.00 0.00 0.00 75 1011.6
20260508105759 11 153 0.0 1.6 0.00 0.00 0.00 74 1011.5
20260508105256 11 188 1.6 1.6 0.00 0.00 0.00 74 1011.4
20260508104753 11 191 3.2 4.8 0.00 0.00 0.00 73 1011.6
20260508104250 11 157 1.6 1.6 0.00 0.00 0.00 73 1011.4
20260508103748 11 178 1.6 1.6 0.00 0.00 0.00 72 1011.8
20260508103244 11 191 1.6 3.2 0.00 0.00 0.00 72 1011.6
20260508102741 11 150 0.0 1.6 0.00 0.00 0.00 72 1011.8
20260508102240 12 161 0.0 0.0 0.00 0.00 0.00 72 1012.0
20260508101737 12 159 0.0 0.0 0.00 0.00 0.00 71 1011.7
20260508101234 12 179 0.0 1.6 0.00 0.00 0.00 71 1011.5
20260508100732 12 176 0.0 1.6 0.00 0.00 0.00 70 1011.8
20260508100230 12 169 1.6 1.6 0.00 0.00 0.00 69 1011.6
20260508095725 12 186 1.6 3.2 0.00 0.00 0.00 68 1011.7
20260508095223 13 214 1.6 3.2 0.00 0.00 0.00 67 1011.6
20260508094719 13 147 1.6 1.6 0.00 0.00 0.00 67 1011.6
20260508094216 13 229 3.2 3.2 0.00 0.00 0.00 66 1011.6
20260508093714 13 151 1.6 1.6 0.00 0.00 0.00 66 1011.6
20260508093212 13 188 1.6 1.6 0.00 0.00 0.00 66 1011.5
20260508092708 13 156 1.6 3.2 0.00 0.00 0.00 65 1011.6
20260508092207 13 189 1.6 3.2 0.00 0.00 0.00 65 1011.5
20260508091704 13 155 1.6 1.6 0.00 0.00 0.00 64 1011.5
20260508091201 13 166 1.6 3.2 0.00 0.00 0.00 64 1011.4
20260508090659 13 162 0.0 1.6 0.00 0.00 0.00 63 1011.4
20260508090156 13 190 3.2 4.8 0.00 0.00 0.00 63 1011.5
20260508085651 13 173 3.2 3.2 0.00 0.00 0.00 62 1011.5
20260508085149 13 229 3.2 8.0 0.00 0.00 0.00 61 1011.6
20260508084645 13 174 1.6 3.2 0.00 0.00 0.00 61 1011.5
20260508084143 13 206 4.8 4.8 0.00 0.00 0.00 60 1011.4
20260508083640 13 212 6.4 9.7 0.00 0.00 0.00 60 1011.2
20260508083138 14 189 6.4 11.3 0.00 0.00 0.00 60 1011.4
20260508082632 13 201 3.2 3.2 0.00 0.00 0.00 60 1011.4
20260508082130 14 169 1.6 3.2 0.00 0.00 0.00 59 1011.5
20260508081627 13 224 3.2 4.8 0.00 0.00 0.00 59 1011.6
20260508081124 13 182 3.2 4.8 0.00 0.00 0.00 59 1011.8
20260508080621 13 163 1.6 1.6 0.00 0.00 0.00 59 1011.7
20260508080119 13 195 4.8 4.8 0.00 0.00 0.00 59 1011.6
20260508075615 13 186 1.6 3.2 0.00 0.00 0.00 60 1011.7
20260508075112 13 187 8.0 12.9 0.00 0.00 0.00 60 1011.7
20260508074610 13 162 3.2 4.8 0.00 0.00 0.00 60 1011.7
20260508074107 13 172 3.2 4.8 0.00 0.00 0.00 60 1012.0
20260508073604 13 177 3.2 3.2 0.00 0.00 0.00 60 1012.1
20260508073102 13 221 1.6 3.2 0.00 0.00 0.00 62 1012.3
20260508072557 12 172 1.6 3.2 0.00 0.00 0.00 62 1012.3
20260508072054 12 179 3.2 4.8 0.00 0.00 0.00 64 1012.2
20260508071552 12 123 0.0 1.6 0.00 0.00 0.00 66 1012.3
20260508071050 12 190 1.6 3.2 0.00 0.00 0.00 65 1012.5
20260508070547 12 134 0.0 0.0 0.00 0.00 0.00 66 1012.2
20260508070045 12 147 0.0 0.0 0.00 0.00 0.00 65 1012.3
20260508065543 12 146 0.0 0.0 0.00 0.00 0.00 65 1012.3
20260508065041 12 154 0.0 1.6 0.00 0.00 0.00 64 1012.2
20260508064538 12 151 0.0 0.0 0.00 0.00 0.00 64 1012.3
20260508064036 12 130 0.0 0.0 0.00 0.00 0.00 64 1012.3
20260508063533 12 128 1.6 1.6 0.00 0.00 0.00 64 1012.3
20260508063031 12 183 1.6 3.2 0.00 0.00 0.00 63 1012.2
20260508062528 12 176 1.6 1.6 0.00 0.00 0.00 63 1012.3
20260508062025 13 183 1.6 1.6 0.00 0.00 0.00 62 1012.3
20260508061523 13 140 3.2 8.0 0.00 0.00 0.00 62 1012.2
20260508061019 13 149 1.6 1.6 0.00 0.00 0.00 61 1012.5
20260508060516 13 218 3.2 4.8 0.00 0.00 0.00 61 1012.4
20260508060014 13 165 1.6 3.2 0.00 0.00 0.00 60 1012.2
20260508055509 13 171 1.6 1.6 0.00 0.00 0.00 60 1012.4
20260508055006 13 182 1.6 3.2 0.00 0.00 0.00 59 1012.5
20260508054503 13 197 3.2 3.2 0.00 0.00 0.00 59 1012.4
20260508054000 13 211 4.8 4.8 0.00 0.00 0.00 58 1012.3
20260508053457 14 177 3.2 3.2 0.00 0.00 0.00 58 1012.3
20260508052955 14 199 3.2 3.2 0.00 0.00 0.00 57 1012.6
20260508052452 14 126 0.0 1.6 0.00 0.00 0.00 57 1012.5
20260508051948 15 206 1.6 3.2 0.00 0.00 0.00 56 1012.5
20260508051444 15 234 3.2 8.0 0.00 0.00 0.00 56 1012.6
20260508050940 15 150 0.0 0.0 0.00 0.00 0.00 55 1012.5
20260508050437 15 194 3.2 4.8 0.00 0.00 0.00 55 1012.6
20260508045933 15 189 3.2 3.2 0.00 0.00 0.00 54 1012.6
20260508045431 15 198 1.6 3.2 0.00 0.00 0.00 54 1012.6
20260508044928 15 138 0.0 1.6 0.00 0.00 0.00 53 1012.7
20260508044425 15 216 8.0 11.3 0.00 0.00 0.00 52 1012.9
20260508043920 15 272 1.6 4.8 0.00 0.00 0.00 52 1012.7
20260508043418 15 167 3.2 3.2 0.00 0.00 0.00 52 1012.7
20260508042914 16 183 1.6 4.8 0.00 0.00 0.00 51 1012.7
20260508042412 16 183 1.6 1.6 0.00 0.00 0.00 50 1012.7
20260508041909 16 195 3.2 3.2 0.00 0.00 0.00 49 1012.8
20260508041405 16 145 3.2 4.8 0.00 0.00 0.00 49 1012.7
20260508040902 16 302 3.2 3.2 0.00 0.00 0.00 48 1012.6
20260508040359 16 241 3.2 3.2 0.00 0.00 0.00 47 1012.4
20260508035857 16 137 0.0 1.6 0.00 0.00 0.00 47 1012.6
20260508035354 17 178 3.2 3.2 0.00 0.00 0.00 47 1012.8
20260508034850 17 174 3.2 4.8 0.00 0.00 0.00 46 1012.8
20260508034347 17 84 4.8 8.0 0.00 0.00 0.00 46 1013.0
20260508033844 17 173 1.6 3.2 0.00 0.00 0.00 45 1012.7
20260508033343 17 214 6.4 9.7 0.00 0.00 0.00 45 1012.7
20260508032839 17 142 0.0 0.0 0.00 0.00 0.00 45 1012.7
20260508032337 17 208 3.2 4.8 0.00 0.00 0.00 45 1012.7
20260508031833 17 159 3.2 4.8 0.00 0.00 0.00 45 1012.7
20260508031330 17 170 4.8 8.0 0.00 0.00 0.00 44 1012.7
20260508030827 17 131 1.6 1.6 0.00 0.00 0.00 44 1012.9
20260508030324 17 145 1.6 8.0 0.00 0.00 0.00 43 1012.7
20260508025821 17 138 0.0 1.6 0.00 0.00 0.00 44 1012.8
20260508025318 18 87 0.0 1.6 0.00 0.00 0.00 43 1012.8
20260508024815 18 235 0.0 0.0 0.00 0.00 0.00 43 1012.7
20260508024311 18 195 0.0 1.6 0.00 0.00 0.00 42 1012.6
20260508023808 18 84 1.6 1.6 0.00 0.00 0.00 42 1012.4
20260508023305 18 131 0.0 1.6 0.00 0.00 0.00 42 1012.5
20260508022801 18 112 0.0 0.0 0.00 0.00 0.00 41 1012.4
20260508022257 18 125 0.0 0.0 0.00 0.00 0.00 41 1012.6
20260508021755 18 119 0.0 0.0 0.00 0.00 0.00 42 1012.5
20260508021250 18 135 0.0 0.0 0.00 0.00 0.00 43 1012.4
20260508020747 18 113 1.6 1.6 0.00 0.00 0.00 42 1012.5
20260508020245 18 126 0.0 0.0 0.00 0.00 0.00 41 1012.4
20260508015741 18 130 0.0 0.0 0.00 0.00 0.00 41 1012.1
20260508015238 19 134 0.0 0.0 0.00 0.00 0.00 41 1012.2
20260508014735 19 176 1.6 1.6 0.00 0.00 0.00 40 1012.0
20260508014232 20 146 0.0 0.0 0.00 0.00 0.00 40 1012.0
20260508013728 20 149 0.0 0.0 0.00 0.00 0.00 39 1012.0
20260508013224 20 136 3.2 3.2 0.00 0.00 0.00 38 1011.7
20260508012722 20 137 0.0 0.0 0.00 0.00 0.00 39 1011.6
20260508012219 21 130 0.0 0.0 0.00 0.00 0.00 37 1011.7
20260508011717 21 125 0.0 0.0 0.00 0.00 0.00 36 1011.7
20260508011214 21 144 0.0 0.0 0.00 0.00 0.00 35 1012.0
20260508010711 22 113 3.2 3.2 0.00 0.00 0.00 34 1011.7
20260508010209 22 175 0.0 0.0 0.00 0.00 0.00 34 1011.7
20260508005706 22 138 1.6 1.6 0.00 0.00 0.00 34 1011.6
20260508005202 22 158 1.6 1.6 0.00 0.00 0.00 32 1011.6
20260508004658 23 127 3.2 4.8 0.00 0.00 0.00 31 1011.5
20260508004154 23 132 0.0 1.6 0.00 0.00 0.00 31 1011.7
20260508003651 23 141 0.0 0.0 0.00 0.00 0.00 30 1011.7
20260508003149 24 157 4.8 4.8 0.00 0.00 0.00 29 1011.5
20260508002645 25 161 4.8 8.0 0.00 0.00 0.00 28 1011.8
20260508002143 25 216 4.8 4.8 0.00 0.00 0.00 27 1011.5
20260508001638 25 161 1.6 3.2 0.00 0.00 0.00 27 1011.5
20260508001134 25 243 3.2 3.2 0.00 0.00 0.00 27 1011.6
20260508000630 25 165 0.0 1.6 0.00 0.00 0.00 26 1011.5